Location: Cisewo
(53.3833°N, 14.9000°E)
Time: 10:54:35
(UTC+00:00)

Cosmos 1709 Rocket - Pass Details

Date: 18 April 2021
Orbit: 947 x 1002 km, 82.9° (Epoch: 14 May)

Event Time Altitude Azimuth Distance (km) Brightness Sun altitude
Rises 21:51:47 0° 349° (N) 3,697 8.4 -23.9°
Reaches altitude 10° 21:54:20 10° 352° (N) 2,737 7.4 -24.0°
Maximum altitude 22:00:36 73° 77° (ENE) 1,011 4.0 -24.2°
Enters shadow 22:02:05 53° 143° (SE) 1,174 4.0 -24.3°
